Location: Waco, TX
(31.5481°N, 97.1672°W)
Time: 11:38:11
(UTC-06:00)

ISS - Pass Details

Date: 17 November 2017
Orbit: 402 x 407 km, 51.6° (Epoch: 20 November)

Event Time Altitude Azimuth Distance (km) Brightness Sun altitude
Exits shadow 05:31:51 19° 2° (N) 1,047 -1.9 -18.5°
Maximum altitude 05:33:11 24° 38° (NE) 877 -1.9 -18.2°
Drops below altitude 10° 05:35:54 10° 95° (E) 1,446 0.2 -17.7°
Sets 05:38:13 0° 110° (ESE) 2,302 1.7 -17.2°
